GW4193 Weather Reports


Display with metric or nautical units.
time (UTC)temp
F
wind
direction
speed
MPH
gust
MPH
rain 1hr
in
rain 24hr
in
rain mn
in
humidity
%
barometer
mb
20260505054525 65 216 3.0 5.0 0.00 0.00 0.00 55 1011.3
20260505053007 65 206 3.0 5.0 0.00 0.00 0.00 55 1011.3
20260505051512 65 205 2.0 4.0 0.00 0.00 0.00 54 1011.2
20260505041519 66 211 3.0 6.0 0.00 0.00 0.00 52 1010.5
20260505040015 66 205 3.0 4.0 0.00 0.00 0.00 52 1010.5
20260505034522 67 204 1.0 4.0 0.00 0.00 0.00 51 1010.4
20260505033024 67 204 1.0 4.0 0.00 0.00 0.00 51 1010.3
20260505031527 67 204 1.0 4.0 0.00 0.00 0.00 51 1010.2
20260505030012 67 204 2.0 3.0 0.00 0.00 0.00 51 1010.1
20260505024534 67 203 0.0 3.0 0.00 0.00 0.00 50 1010.1
20260505023020 68 203 1.0 3.0 0.00 0.00 0.00 50 1010.2
20260505021524 69 203 1.0 4.0 0.00 0.00 0.00 49 1009.9
20260505020028 68 200 3.0 5.0 0.00 0.00 0.00 50 1009.8
20260505014515 69 200 1.0 4.0 0.00 0.00 0.00 50 1009.8
20260505013011 69 200 2.0 5.0 0.00 0.00 0.00 50 1009.8
20260505011503 69 200 2.0 4.0 0.00 0.00 0.00 51 1009.8
20260505010008 69 191 1.0 3.0 0.00 0.00 0.00 50 1009.7
20260505004515 70 191 0.0 3.0 0.00 0.00 0.00 49 1009.7
20260505003016 71 200 1.0 3.0 0.00 0.00 0.00 49 1009.6
20260505001503 71 300 1.0 3.0 0.00 0.00 0.00 49 1009.7
20260505000005 72 208 1.0 4.0 0.00 0.00 0.00 48 1009.7
20260504234508 72 202 3.0 7.0 0.00 0.00 0.00 47 1009.7
20260504233028 73 212 2.0 5.0 0.00 0.00 0.00 46 1009.7
20260504231527 74 196 3.0 6.0 0.00 0.00 0.00 45 1009.7
20260504230004 75 215 4.0 9.0 0.00 0.00 0.00 45 1009.8
20260504224514 75 204 2.0 11.0 0.00 0.00 0.00 43 1009.9
20260504223012 75 132 3.0 10.0 0.00 0.00 0.00 43 1010.1
20260504221520 75 211 2.0 5.0 0.00 0.00 0.00 44 1010.2
20260504220022 75 193 3.0 10.0 0.00 0.00 0.00 43 1010.0
20260504214503 75 200 3.0 8.0 0.00 0.00 0.00 44 1010.0
20260504213012 76 326 5.0 11.0 0.00 0.00 0.00 44 1010.3
20260504211514 76 177 2.0 10.0 0.00 0.00 0.00 43 1010.1
20260504210020 76 262 5.0 11.0 0.00 0.00 0.00 42 1010.2
20260504204523 75 127 4.0 10.0 0.00 0.00 0.00 45 1010.2
20260504203018 75 219 4.0 9.0 0.00 0.00 0.00 45 1010.4
20260504201529 75 203 5.0 12.0 0.00 0.00 0.00 44 1010.7
20260504200026 75 240 3.0 7.0 0.00 0.00 0.00 49 1010.7
20260504194533 73 134 3.0 8.0 0.00 0.00 0.00 51 1011.0
20260504193023 70 233 1.0 2.0 0.00 0.00 0.00 58 1011.2
20260504191507 67 236 1.0 3.0 0.00 0.00 0.00 61 1011.5
20260504190014 67 129 0.0 3.0 0.00 0.00 0.00 63 1011.8
20260504184518 66 227 0.0 4.0 0.00 0.00 0.00 62 1012.1
20260504183024 64 244 0.0 6.0 0.00 0.00 0.00 65 1012.4
20260504181508 64 259 3.0 7.0 0.00 0.00 0.00 64 1012.4
20260504180015 64 245 3.0 13.0 0.00 0.00 0.00 61 1012.3
20260504174516 64 221 3.0 13.0 0.00 0.00 0.00 60 1012.1
20260504173021 65 210 6.0 12.0 0.00 0.00 0.00 58 1012.4
20260504171527 65 207 3.0 11.0 0.00 0.00 0.00 58 1012.1
20260504081506 51 205 3.0 6.0 0.00 0.00 0.00 56 1014.2